Dewpoint
-5 -5 -5 -5 -4 -4 -4 -4 -4 -4 -4 -4 -4 -5 -5 -5 -6 -6 -7 -8 -8 -9 -10 -11 -11 -11 -12 -12 -7 -6 -9 -16 -23 -25 -25 -26 -27 -32 -34 -34 -38 -36
-4 -4 -5 -5 -5 -5 -5 -4 -4 -4 -4 -4 -4 -4 -5 -5 -6 -6 -7 -8 -8 -9 -10 -10 -12 -11 -14 -12 -7 -6 -10 -16 -22 -25 -25 -26 -27 -31 -34 -34 -37 -35
-4 -4 -4 -5 -5 -5 -5 -5 -5 -4 -4 -4 -4 -4 -5 -5 -6 -6 -7 -7 -8 -9 -9 -10 -10 -11 -14 -12 -6 -6 -10 -15 -21 -26 -25 -26 -27 -30 -34 -34 -36 -36
-4 -4 -5 -6 -5 -4 -5 -5 -5 -5 -4 -4 -4 -4 -5 -5 -6 -6 -7 -7 -8 -8 -9 -9 -10 -11 -13 -10 -6 -6 -9 -14 -19 -24 -24 -25 -27 -29 -33 -34 -35 -36
-6 -6 -6 -6 -5 -4 -5 -5 -5 -5 -5 -5 -5 -5 -5 -5 -6 -6 -7 -7 -8 -8 -9 -10 -10 -11 -10 -8 -6 -5 -8 -12 -17 -21 -23 -25 -26 -28 -32 -34 -34 -34
-8 -8 -7 -6 -5 -4 -4 -4 -5 -5 -5 -5 -5 -5 -5 -5 -6 -6 -7 -7 -8 -8 -9 -10 -11 -11 -9 -7 -6 -5 -7 -11 -15 -19 -22 -24 -24 -27 -31 -33 -35 -34
-9 -9 -9 -8 -6 -5 -4 -4 -4 -5 -5 -5 -5 -5 -6 -6 -6 -6 -7 -7 -8 -9 -9 -11 -12 -12 -10 -8 -6 -5 -7 -11 -14 -17 -20 -22 -23 -26 -30 -33 -34 -33
-10 -9 -9 -9 -7 -5 -4 -4 -4 -5 -5 -5 -6 -6 -6 -6 -6 -6 -7 -7 -8 -9 -10 -11 -12 -13 -12 -9 -7 -5 -6 -10 -14 -16 -18 -19 -21 -25 -29 -32 -33 -33
-10 -8 -8 -9 -8 -7 -5 -4 -4 -4 -5 -5 -6 -6 -6 -6 -6 -6 -7 -7 -8 -9 -10 -11 -12 -13 -12 -10 -7 -6 -6 -9 -13 -15 -17 -18 -20 -23 -27 -31 -32 -33
-10 -8 -8 -8 -8 -7 -6 -4 -4 -4 -5 -5 -5 -5 -6 -6 -6 -6 -7 -7 -8 -9 -10 -10 -11 -12 -12 -10 -8 -6 -6 -9 -13 -15 -16 -17 -18 -21 -25 -29 -32 -32
-10 -9 -8 -7 -7 -6 -6 -5 -4 -3 -4 -5 -5 -5 -6 -6 -6 -6 -7 -7 -8 -8 -9 -10 -10 -10 -10 -10 -8 -7 -7 -9 -12 -14 -16 -16 -17 -19 -23 -27 -30 -32
-10 -9 -8 -7 -6 -6 -6 -5 -4 -3 -4 -4 -5 -5 -5 -6 -6 -6 -6 -7 -7 -8 -8 -9 -9 -9 -10 -9 -8 -7 -7 -9 -12 -14 -15 -16 -17 -18 -21 -25 -28 -30
-9 -9 -8 -7 -6 -5 -5 -5 -4 -4 -3 -4 -5 -5 -5 -6 -6 -6 -6 -6 -7 -8 -8 -9 -9 -9 -9 -9 -9 -8 -8 -9 -11 -13 -15 -15 -17 -18 -20 -23 -24 -25
-9 -8 -8 -6 -5 -5 -5 -5 -4 -4 -3 -3 -4 -5 -5 -5 -6 -6 -6 -6 -7 -7 -8 -8 -9 -9 -9 -9 -9 -8 -8 -8 -10 -13 -14 -15 -17 -18 -19 -20 -19 -19
-8 -8 -7 -6 -5 -5 -5 -5 -4 -4 -4 -4 -4 -5 -5 -5 -5 -6 -6 -6 -7 -7 -8 -8 -8 -9 -9 -9 -9 -9 -9 -8 -9 -12 -14 -15 -17 -18 -18 -17 -15 -16
-8 -8 -7 -6 -5 -5 -5 -5 -5 -4 -4 -4 -4 -4 -5 -5 -5 -6 -6 -6 -7 -7 -7 -8 -8 -9 -9 -9 -9 -9 -9 -9 -9 -11 -14 -15 -17 -17 -17 -15 -14 -16
-8 -7 -7 -6 -5 -5 -5 -5 -5 -4 -4 -4 -4 -4 -5 -5 -5 -6 -6 -6 -6 -7 -7 -8 -8 -9 -9 -9 -9 -9 -10 -9 -9 -10 -13 -15 -16 -17 -16 -15 -14 -16
-7 -7 -7 -6 -5 -5 -5 -5 -5 -5 -5 -4 -4 -4 -5 -5 -5 -5 -6 -6 -6 -7 -7 -8 -8 -8 -9 -9 -9 -10 -10 -10 -9 -10 -12 -15 -16 -16 -15 -14 -14 -16
-7 -7 -7 -6 -5 -5 -6 -5 -5 -5 -5 -5 -5 -5 -5 -5 -5 -5 -6 -6 -6 -7 -7 -8 -8 -8 -9 -9 -10 -10 -11 -10 -9 -10 -12 -14 -15 -15 -15 -14 -14 -17
-6 -6 -6 -6 -6 -6 -6 -6 -5 -5 -5 -5 -5 -5 -5 -5 -5 -6 -6 -6 -6 -7 -7 -8 -8 -8 -9 -10 -10 -11 -11 -11 -10 -10 -12 -14 -15 -14 -14 -13 -14 -18
-6 -6 -6 -7 -6 -6 -6 -6 -5 -6 -6 -5 -5 -5 -5 -5 -6 -6 -6 -6 -6 -7 -7 -8 -8 -8 -9 -10 -10 -11 -11 -11 -11 -11 -11 -13 -14 -13 -13 -13 -15 -18
-6 -6 -6 -7 -6 -6 -6 -6 -6 -6 -6 -6 -6 -6 -6 -6 -6 -6 -6 -6 -7 -7 -8 -8 -8 -9 -9 -10 -10 -11 -11 -11 -12 -11 -11 -12 -13 -13 -13 -13 -15 -18
-6 -6 -7 -7 -6 -6 -6 -6 -6 -6 -6 -6 -6 -6 -6 -6 -6 -6 -6 -6 -7 -7 -8 -8 -8 -9 -9 -10 -11 -11 -11 -11 -12 -12 -12 -12 -13 -13 -13 -14 -16 -18
-6 -6 -6 -6 -6 -6 -6 -6 -6 -6 -6 -7 -6 -6 -6 -6 -6 -6 -6 -6 -7 -7 -8 -8 -8 -9 -9 -10 -11 -11 -11 -11 -12 -12 -12 -12 -13 -13 -13 -14 -16 -17
-7 -7 -6 -6 -7 -7 -7 -6 -6 -6 -6 -7 -6 -6 -6 -6 -6 -6 -6 -6 -7 -7 -8 -8 -8 -9 -10 -10 -11 -11 -11 -11 -12 -12 -12 -12 -13 -13 -14 -15 -16 -17
-7 -7 -6 -7 -7 -8 -7 -6 -6 -6 -6 -6 -7 -6 -6 -6 -6 -6 -7 -7 -7 -7 -8 -8 -9 -9 -9 -10 -11 -11 -11 -11 -12 -12 -12 -12 -13 -13 -14 -15 -16 -16
Wind_Speed
34 32 29 28 29 28 28 29 30 32 33 33 34 35 36 36 35 35 35 34 35 37 38 40 41 40 38 35 31 29 29 29 31 32 31 30 28 26 25 25 25 25
33 35 34 30 28 28 27 27 29 29 30 30 30 32 33 35 36 36 35 34 35 36 37 39 40 40 39 36 31 29 29 29 30 32 32 30 28 26 25 25 25 25
31 34 37 35 30 28 26 26 27 28 28 28 28 29 31 33 35 35 35 35 35 36 36 37 37 38 39 37 32 30 30 29 29 31 31 30 28 26 25 25 25 25
32 33 36 36 33 30 27 26 26 26 26 26 26 27 29 32 34 35 35 35 36 36 35 35 36 36 37 37 34 31 30 29 28 30 31 30 28 27 26 26 26 26
36 35 37 36 33 31 29 27 26 25 24 24 24 24 27 29 33 34 35 35 36 35 35 36 36 35 36 37 35 33 31 29 29 30 31 30 29 27 26 26 26 26
39 37 37 37 34 31 29 28 26 24 23 22 22 23 25 27 30 33 34 34 35 35 35 36 36 36 36 36 36 34 31 30 29 29 31 30 29 28 26 26 27 27
40 38 36 36 35 32 30 28 25 24 22 21 21 23 24 26 28 30 32 33 34 35 35 36 36 37 37 37 36 35 32 30 29 29 30 30 30 29 27 27 27 27
40 38 36 35 35 33 31 29 26 23 21 20 21 21 23 25 27 28 30 32 33 34 35 35 36 38 39 38 37 35 33 31 30 30 30 30 30 29 27 27 27 27
41 39 36 34 34 33 31 30 28 25 22 20 20 19 21 24 26 27 29 31 32 34 35 35 36 39 41 39 37 35 33 31 31 30 30 30 29 28 27 27 27 27
43 41 38 35 35 34 32 30 29 27 24 21 19 18 20 22 24 27 28 30 32 33 34 35 36 39 41 40 38 36 33 31 30 30 29 29 27 27 26 26 27 27
44 43 40 37 37 36 34 31 30 29 26 23 20 18 19 21 23 25 26 28 30 31 33 34 36 38 41 41 39 36 33 31 30 30 29 28 27 26 26 25 26 26
44 43 42 40 39 38 37 33 30 29 27 25 22 19 19 20 22 24 24 26 28 29 31 33 35 37 40 41 39 36 33 31 30 30 29 28 26 26 25 26 25 25
45 44 43 42 40 39 38 34 31 29 28 26 23 21 21 21 22 22 23 24 25 27 30 32 33 36 39 40 39 36 33 32 31 30 30 28 27 26 26 26 25 24
45 44 43 43 41 39 37 35 32 30 29 26 24 23 22 21 22 21 21 23 24 26 27 29 32 35 37 38 37 36 34 33 31 31 30 29 28 27 26 25 24 23
44 43 43 42 41 39 36 35 33 32 31 28 25 24 22 21 21 21 22 22 24 25 26 28 31 35 37 36 35 35 34 33 32 31 31 29 28 27 26 24 23 23
43 42 42 41 41 39 37 35 34 33 34 30 25 24 23 22 22 22 22 22 23 24 25 27 31 33 35 34 33 34 34 34 33 32 30 30 28 27 26 24 24 23
42 41 41 40 41 40 37 36 35 35 36 32 26 24 23 23 23 23 22 20 21 23 25 28 30 31 32 32 32 33 33 34 33 31 30 30 29 27 26 25 24 23
41 40 40 40 41 40 36 35 36 36 37 35 28 24 24 24 23 22 21 19 20 23 26 28 29 29 28 29 31 32 33 33 31 29 30 30 29 27 26 25 24 23
41 40 40 39 40 38 35 34 35 36 36 35 30 24 24 25 24 23 22 21 21 24 26 26 26 26 27 28 29 30 30 31 29 28 30 30 29 28 26 25 24 23
40 40 40 40 39 37 35 34 35 36 35 34 32 28 26 27 26 25 24 22 22 23 25 25 24 24 26 27 28 27 28 28 28 27 28 29 29 28 26 24 23 23
39 39 41 42 40 38 36 35 35 36 34 31 31 30 27 27 26 26 24 23 22 23 24 24 24 23 25 25 26 25 26 27 28 27 26 28 28 27 25 24 23 22
38 38 39 40 39 37 36 36 35 35 33 29 28 29 27 26 26 25 24 23 22 23 24 25 23 23 23 24 24 24 25 26 28 28 27 27 27 25 24 23 22 21
37 36 35 35 35 36 37 36 36 36 34 30 27 27 26 24 25 24 23 23 22 23 25 24 23 21 21 22 22 23 25 27 29 29 29 28 26 24 23 22 21 19
36 34 33 33 34 35 36 36 37 37 35 30 26 26 24 22 22 23 22 22 23 24 25 24 22 19 19 20 21 22 25 27 29 29 29 28 26 24 23 21 20 18
34 32 31 31 32 34 35 36 37 37 34 30 27 25 22 20 21 23 23 22 23 24 24 23 21 18 17 18 19 21 24 27 29 30 29 28 26 24 23 21 19 18
33 31 29 29 30 32 34 35 36 34 31 29 28 26 22 20 20 22 23 22 22 23 23 22 21 19 17 17 18 21 24 26 28 30 30 29 27 25 23 21 19 17
Wind_Direction
343 335 317 301 295 296 296 294 291 288 285 283 281 279 277 276 275 273 270 266 262 259 256 253 251 250 247 246 251 254 249 244 245 249 251 253 256 259 263 267 268 270
339 340 335 320 305 299 298 297 293 287 284 282 280 280 278 275 273 272 270 267 263 260 257 255 252 250 246 245 251 253 245 241 243 247 251 253 256 259 262 266 267 268
336 334 335 333 324 312 304 299 294 286 282 280 278 277 277 275 273 272 270 267 264 261 258 256 254 250 246 244 252 253 244 240 242 246 251 253 255 258 261 265 266 266
332 330 329 330 330 324 314 304 296 290 284 279 276 276 276 275 273 271 269 267 264 262 260 257 254 250 245 244 251 254 245 239 240 245 250 252 254 256 259 263 264 265
325 325 326 326 327 325 320 312 304 297 289 282 278 276 274 274 273 271 269 266 264 263 261 257 253 248 244 245 251 254 246 237 236 242 247 250 253 255 258 262 263 264
326 324 323 323 323 323 320 317 312 303 294 285 280 276 273 272 273 271 270 268 266 264 261 257 252 246 246 248 252 253 246 237 234 239 245 250 253 255 258 261 262 263
329 326 323 320 319 320 319 318 314 307 299 290 282 278 274 272 271 271 270 269 267 265 262 258 253 247 248 250 252 252 246 237 234 237 243 248 253 255 257 260 261 262
327 325 323 319 315 316 317 317 313 307 300 292 284 280 277 274 272 271 270 269 268 266 262 260 255 249 249 251 253 251 246 238 234 236 240 246 252 255 257 260 261 262
325 323 321 317 313 311 313 315 312 306 297 290 287 282 277 275 273 272 271 269 268 266 262 260 255 250 251 253 253 251 245 238 234 235 239 244 251 255 258 260 261 262
324 323 320 315 312 310 310 312 311 306 294 286 286 283 277 276 274 272 270 268 266 264 261 258 254 252 253 254 254 251 245 238 234 236 239 243 250 254 258 261 260 262
322 324 321 316 313 312 310 309 308 305 296 285 283 281 277 275 272 270 269 266 265 264 262 259 257 255 254 254 254 251 245 237 234 235 238 242 248 252 256 259 259 261
320 322 322 317 313 312 312 309 305 303 297 287 281 277 274 271 268 267 267 266 265 263 261 260 259 257 255 254 254 251 244 237 233 234 237 241 245 250 254 256 257 260
318 320 321 318 314 312 312 310 305 301 297 289 281 274 270 268 266 265 264 265 265 262 260 260 259 257 255 254 253 249 244 238 234 234 236 238 242 246 251 255 257 259
317 318 319 319 315 313 312 310 306 301 297 289 279 272 268 266 266 266 264 264 264 262 261 260 258 256 254 253 252 249 245 241 236 234 235 236 240 244 249 254 258 261
317 317 319 319 317 314 312 310 306 301 299 292 278 270 268 265 264 264 263 263 262 262 262 259 257 255 253 254 253 250 246 243 239 235 234 235 238 243 248 252 256 261
317 318 319 320 319 316 313 311 308 304 303 297 280 269 267 265 262 260 260 262 263 263 262 259 256 255 254 255 255 252 248 245 242 237 233 234 236 240 245 250 255 259
317 318 319 319 319 318 315 313 312 310 309 303 284 269 266 264 261 259 258 260 263 263 261 258 256 255 255 256 254 252 249 246 243 238 234 233 234 238 243 249 254 258
317 317 318 319 319 320 318 316 315 315 315 310 294 273 264 264 261 257 256 256 259 261 258 257 257 257 257 255 252 250 249 248 244 236 232 231 232 237 242 248 254 259
316 316 317 317 318 319 319 318 317 317 317 316 308 287 269 265 262 258 256 254 255 258 257 257 259 259 257 253 250 247 244 247 246 236 230 230 230 235 241 247 254 258
315 316 316 316 316 317 318 318 317 317 318 319 315 300 278 268 265 261 258 256 256 258 258 259 261 260 257 252 248 242 235 238 244 239 230 228 230 234 239 246 252 256
315 317 317 315 314 315 317 317 316 316 317 318 315 307 290 274 268 266 263 260 260 260 259 259 260 260 256 250 245 238 228 226 234 238 234 229 230 233 238 243 249 252
315 317 319 318 316 315 316 316 315 315 318 317 314 310 298 279 268 268 268 265 264 263 261 260 261 259 255 250 243 233 222 218 223 232 236 234 231 233 236 241 245 249
315 317 319 320 319 317 316 316 315 316 317 316 312 310 302 285 272 271 273 271 269 265 261 260 261 260 255 250 241 228 219 216 218 224 232 236 235 234 235 238 243 248
316 317 319 320 319 318 317 317 316 315 315 316 312 308 304 292 279 274 275 274 271 267 263 262 264 263 254 247 239 224 216 216 217 220 228 234 236 235 235 238 243 249
317 317 319 320 319 317 317 317 314 313 314 316 313 307 302 294 281 273 272 273 271 267 264 263 265 262 252 243 235 221 214 216 217 219 224 229 232 233 234 238 242 247
316 317 319 320 317 315 316 314 312 312 314 315 313 307 300 291 281 273 271 271 269 267 265 264 264 260 248 239 231 219 213 216 219 220 221 225 229 231 233 236 240 245
Height
1394 1391 1388 1385 1381 1378 1375 1373 1371 1370 1368 1367 1366 1366 1367 1368 1369 1369 1369 1370 1371 1371 1373 1374 1375 1376 1377 1378 1379 1379 1380 1381 1383 1385 1386 1386 1387 1387 1387 1386 1386 1386
1392 1390 1387 1384 1379 1376 1372 1370 1368 1366 1364 1363 1362 1362 1362 1363 1364 1364 1365 1365 1366 1367 1368 1369 1371 1372 1373 1374 1375 1374 1375 1376 1378 1380 1381 1382 1383 1383 1383 1383 1383 1383
1390 1388 1385 1382 1377 1373 1369 1367 1365 1363 1361 1359 1358 1358 1358 1359 1359 1360 1360 1361 1362 1362 1364 1365 1366 1368 1369 1370 1371 1370 1370 1371 1373 1375 1377 1378 1379 1379 1380 1380 1380 1380
1386 1384 1382 1379 1375 1371 1367 1364 1362 1360 1358 1356 1355 1354 1354 1355 1355 1355 1356 1357 1357 1358 1359 1360 1362 1363 1365 1366 1366 1366 1366 1368 1369 1371 1372 1373 1375 1375 1376 1376 1377 1377
1382 1380 1378 1376 1372 1368 1365 1362 1359 1357 1355 1353 1352 1352 1351 1351 1351 1351 1352 1352 1353 1354 1355 1356 1357 1358 1360 1361 1362 1361 1362 1363 1364 1366 1367 1369 1371 1371 1372 1373 1373 1373
1378 1377 1375 1372 1369 1366 1362 1359 1357 1354 1352 1350 1349 1348 1347 1347 1347 1347 1348 1348 1349 1350 1351 1352 1353 1354 1355 1356 1357 1357 1357 1358 1359 1361 1362 1365 1367 1367 1368 1369 1369 1370
1373 1372 1371 1368 1365 1363 1359 1357 1354 1351 1349 1347 1345 1344 1344 1344 1343 1343 1344 1344 1345 1346 1347 1348 1348 1350 1351 1351 1352 1352 1353 1354 1355 1356 1358 1360 1362 1363 1364 1365 1366 1367
1369 1367 1366 1364 1361 1359 1356 1354 1351 1348 1346 1343 1341 1341 1340 1340 1339 1339 1339 1340 1341 1342 1343 1344 1345 1346 1347 1347 1347 1348 1349 1350 1351 1352 1353 1355 1357 1359 1361 1362 1362 1363
1366 1363 1362 1360 1357 1355 1353 1351 1348 1346 1343 1339 1337 1336 1336 1335 1335 1335 1335 1335 1336 1337 1338 1340 1341 1342 1342 1343 1343 1344 1344 1345 1346 1348 1349 1351 1353 1355 1357 1358 1359 1360
1361 1359 1357 1355 1352 1350 1348 1346 1344 1342 1339 1336 1333 1332 1331 1331 1331 1331 1330 1331 1331 1333 1334 1335 1337 1337 1338 1339 1339 1339 1340 1341 1342 1344 1346 1347 1349 1351 1353 1354 1355 1356
1357 1354 1352 1350 1347 1345 1343 1341 1339 1337 1335 1332 1329 1327 1327 1327 1327 1326 1326 1326 1326 1328 1329 1330 1332 1333 1333 1334 1335 1335 1336 1336 1338 1339 1341 1343 1345 1347 1349 1350 1351 1352
1353 1350 1348 1345 1342 1340 1338 1336 1334 1332 1330 1328 1325 1323 1322 1322 1322 1321 1321 1321 1321 1323 1323 1324 1327 1328 1328 1329 1330 1332 1332 1332 1333 1334 1337 1339 1341 1343 1345 1346 1347 1348
1348 1346 1343 1340 1337 1335 1333 1331 1329 1326 1324 1323 1321 1320 1318 1318 1317 1316 1316 1316 1316 1317 1317 1319 1321 1322 1323 1325 1326 1328 1328 1328 1329 1330 1332 1335 1337 1339 1341 1342 1343 1345
1344 1341 1339 1336 1333 1330 1328 1326 1324 1322 1319 1318 1316 1315 1315 1314 1313 1312 1312 1311 1311 1311 1312 1314 1315 1316 1318 1320 1322 1324 1324 1324 1325 1326 1328 1331 1333 1335 1337 1338 1340 1341
1340 1337 1334 1331 1328 1326 1323 1321 1319 1317 1314 1312 1311 1310 1310 1310 1309 1308 1307 1306 1306 1306 1307 1309 1310 1311 1313 1315 1317 1319 1320 1320 1321 1323 1324 1326 1329 1331 1333 1335 1336 1336
1336 1333 1330 1327 1324 1321 1319 1317 1315 1312 1310 1307 1306 1305 1305 1305 1305 1304 1303 1302 1301 1301 1302 1304 1305 1306 1308 1310 1312 1314 1315 1316 1317 1319 1321 1323 1325 1327 1329 1330 1332 1333
1332 1329 1326 1323 1320 1317 1315 1312 1310 1308 1305 1302 1301 1300 1300 1300 1300 1299 1298 1297 1297 1297 1298 1300 1301 1302 1303 1305 1307 1309 1310 1312 1313 1315 1318 1319 1321 1323 1325 1326 1328 1329
1328 1325 1322 1319 1317 1314 1311 1308 1306 1303 1301 1298 1296 1295 1296 1296 1295 1295 1294 1293 1293 1293 1294 1295 1296 1298 1299 1301 1302 1304 1305 1307 1309 1311 1313 1315 1317 1319 1321 1323 1324 1326
1324 1322 1319 1316 1313 1311 1308 1305 1302 1300 1297 1294 1292 1292 1291 1291 1291 1290 1290 1289 1289 1289 1289 1291 1293 1294 1295 1296 1298 1300 1302 1302 1304 1307 1309 1311 1314 1316 1317 1319 1320 1322
1321 1318 1315 1313 1310 1307 1304 1301 1299 1296 1293 1291 1289 1288 1287 1287 1287 1286 1286 1285 1285 1285 1286 1287 1289 1291 1292 1293 1294 1297 1299 1299 1300 1303 1305 1308 1310 1312 1314 1316 1317 1319
1318 1315 1312 1309 1306 1304 1301 1298 1296 1294 1291 1288 1286 1285 1284 1283 1283 1283 1282 1282 1281 1282 1282 1283 1285 1288 1289 1290 1291 1293 1296 1297 1297 1298 1301 1304 1307 1309 1311 1313 1314 1316
1315 1312 1308 1305 1302 1300 1298 1295 1293 1291 1288 1286 1283 1281 1280 1280 1280 1279 1278 1278 1278 1279 1279 1280 1282 1285 1286 1287 1288 1290 1293 1294 1295 1295 1297 1300 1303 1305 1307 1309 1311 1313
1311 1308 1305 1302 1299 1296 1294 1291 1289 1287 1285 1283 1280 1278 1276 1276 1275 1275 1275 1275 1275 1276 1276 1278 1279 1282 1283 1284 1285 1287 1289 1291 1292 1293 1294 1296 1299 1302 1304 1306 1308 1310
1307 1305 1302 1299 1296 1293 1290 1287 1285 1282 1280 1279 1277 1274 1273 1272 1272 1272 1272 1272 1273 1273 1274 1275 1277 1279 1280 1281 1282 1284 1286 1287 1288 1290 1292 1293 1296 1299 1301 1303 1305 1307
1304 1301 1299 1296 1293 1290 1287 1284 1281 1278 1276 1274 1273 1271 1269 1269 1269 1269 1269 1270 1270 1271 1272 1273 1274 1275 1277 1277 1279 1281 1282 1284 1285 1287 1289 1290 1293 1296 1298 1300 1302 1304
1300 1297 1295 1293 1290 1287 1284 1281 1278 1275 1273 1271 1269 1268 1267 1266 1265 1265 1266 1267 1268 1268 1269 1270 1271 1272 1273 1274 1276 1277 1279 1281 1282 1283 1285 1287 1290 1293 1294 1297 1299 1301